This is the latest recevied weather packets stored in our database for station/object EB1DWF. If no packets are shown the sender has not sent any weather packets the latest 10 day(s).
| Time | Temp. | Humidity | Pressure | Rain* | Wind** | Luminosity | Snow |
|---|---|---|---|---|---|---|---|
| 1778156283 | 22.22° C | 30% | 999.7 hPa | 0 mm | - | 628 W/m² | - |
| 1778155875 | 21.67° C | 31% | 999.8 hPa | 0 mm | - | 207 W/m² | - |
| 1778155337 | 21.67° C | 30% | 1000 hPa | 0 mm | - | 708 W/m² | - |
| 1778154974 | 21.67° C | 29% | 1000 hPa | 0 mm | - | 761 W/m² | - |
| 1778154304 | 23.33° C | 31% | 1000 hPa | 0 mm | - | 552 W/m² | - |
| 1778153894 | 22.78° C | 31% | 1000.2 hPa | 0 mm | - | 553 W/m² | - |
| 1778153356 | 23.33° C | 34% | 1000.3 hPa | 0 mm | - | 681 W/m² | - |
| 1778152813 | 21.11° C | 34% | 1000.4 hPa | 0 mm | - | 637 W/m² | - |
| 1778152276 | 23.33° C | 33% | 1000.4 hPa | 0 mm | - | 154 W/m² | - |
| 1778151603 | 22.22° C | 34% | 1000.6 hPa | 0 mm | - | 619 W/m² | - |
| 1778151243 | 22.22° C | 36% | 1000.5 hPa | 0 mm | - | 611 W/m² | - |
| 1778150837 | 22.22° C | 35% | 1000.6 hPa | 0 mm | - | 604 W/m² | - |
| 1778150163 | 22.22° C | 38% | 1000.7 hPa | 0 mm | - | 573 W/m² | - |
| 1778149623 | 21.67° C | 39% | 1000.9 hPa | 0 mm | - | 561 W/m² | - |
| 1778149214 | 22.22° C | 39% | 1000.9 hPa | 0 mm | - | 380 W/m² | - |
| 1778148676 | 20.56° C | 44% | 1001 hPa | 0 mm | - | 450 W/m² | - |
| 1778148004 | 18.89° C | 49% | 1001.1 hPa | 0 mm | - | 407 W/m² | - |
| 1778147775 | 18.89° C | 49% | 1001.1 hPa | 0 mm | - | 403 W/m² | - |
| 1778147103 | 18.89° C | 50% | 1001.3 hPa | 0 mm | - | 375 W/m² | - |
| 1778146563 | 19.44° C | 51% | 1001.5 hPa | 0 mm | - | 361 W/m² | - |
| 1778146023 | 17.78° C | 54% | 1001.5 hPa | 0 mm | - | 342 W/m² | - |
| 1778145615 | 17.22° C | 58% | 1001.6 hPa | 0 mm | - | 334 W/m² | - |
| 1778145077 | 15.56° C | 66% | 1001.7 hPa | 0 mm | - | 314 W/m² | - |
| 1778144404 | 14.44° C | 71% | 1001.8 hPa | 0 mm | - | 59 W/m² | - |
| 1778144176 | 14.44° C | 71% | 1001.7 hPa | 0 mm | - | 58 W/m² | - |
* Rain latest hour (hover to see other rain measurements)
** Current wind speed in m/s (hover to see current wind gust speed)